Preview of NWS' New Version of Forecast
This preview is not operational and should not be used for support decisions.

Regional Weather Roundup (RWR)

Issued by National Weather Service (NWS)

                            
318 
ASUS44 KJAN 260710
RWRMS 

MISSISSIPPI HOURLY WEATHER ROUNDUP
NATIONAL WEATHER SERVICE JACKSON MS
200 AM CDT TUE MAR 26 2019

NOTE: "FAIR: INDICATES FEW OR NO CLOUDS BELOW 12,000 FEET WITH NO
SIGNIFICANT WEATHER AND/OR OBSTRUCTIONS TO VISIBILITY.

MSZ001>002-007>008-010>013-018>021-025>028-034>036-260800-
NORTHWEST MISSISSIPPI
  
CITY           SKY/WX    TMP DP  RH WIND       PRES   REMARKS
BATESVILLE     CLOUDY    52  45  76 N7        30.22R                  
CLARKSDALE     PTCLDY    50  46  87 N15       30.25R                  
CLEVELAND      FAIR      50  46  83 N12       30.24R                  
GREENWOOD      MOCLDY    51  45  79 N8        30.20S                  
GREENVILLE     MOCLDY    52  45  77 N14       30.22R                  
OLIVE BRANCH     N/A     48  45  87 N14       30.23S                  
OXFORD         CLOUDY    48  43  81 N9G16     30.23S                  
TUNICA           N/A     46  43  87 N13       30.26S                  
WINONA         CLOUDY    52  44  74 N10G16    30.18S                  
$$

MSZ003>006-009-014>017-022>024-029>033-037>039-260800-
NORTHEAST MISSISSIPPI
  
CITY           SKY/WX    TMP DP  RH WIND       PRES   REMARKS
ABERDEEN       CLOUDY    52  52 100 N7G14     30.18R                  
COLUMBUS AFB   CLOUDY    54  46  76 N12       30.15R                  
CORINTH        CLOUDY    50  45  81 NW8G15    30.20R                  
GOLDN TRIANGLE CLOUDY    54  46  74 NW15      30.16R                  
STARKVILLE     CLOUDY    54  46  76 N8        30.17S                  
TUPELO         CLOUDY    51  44  77 N12       30.19R                  
$$

MSZ040-058-260800-
CENTRAL MISSISSIPPI
  
CITY           SKY/WX    TMP DP  RH WIND       PRES   REMARKS
JACKSON INTL   FAIR      53  46  77 N8        30.18R                  
JACKSON HAWKNS FAIR      54  48  80 N9G17     30.19R                  
MADISON        FAIR      52  46  82 N3        30.18R                  
MERIDIAN KEY   FAIR      53  47  79 NW6       30.14S                  
MERIDIAN NAS   FAIR      53  49  86 NW5       30.14S                  
RAYMOND        FAIR      55  52  88 VRB7G14   30.19R                  
VICKSBURG VKS  PTSUNNY   55  50  82 N6        30.20R                  
$$

MSZ059>079-260800-
SOUTH MISSISSIPPI
  
CITY           SKY/WX    TMP DP  RH WIND       PRES   REMARKS
HATTIESBURG    FAIR      57  48  72 N5        30.14S                  
LAUREL         SUNNY     54  49  82 N7        30.14S                  
MCCOMB         FAIR      58  48  69 N7        30.15S                  
NATCHEZ        FAIR      55  49  80 N7        30.19S                  
PINE BELT      FAIR      55  49  80 N10       30.14F                  
$$

MSZ080>082-260800-
COASTAL MISSISSIPPI
  
CITY           SKY/WX    TMP DP  RH WIND       PRES   REMARKS
BILOXI         FAIR      62  49  64 N5        30.10R                  
PASCAGOULA     FAIR      62  50  64 N7        30.10R                  
GULFPORT       FAIR      62  49  62 N7        30.10R                  
$$

LAZ007>009-015>016-023>026-260800-
NORTHEAST LOUISIANA
  
CITY           SKY/WX    TMP DP  RH WIND       PRES   REMARKS
BASTROP        FAIR      52  47  83 CALM      30.24R                  
TALLULAH/VBURG FAIR      56  49  77 N9        30.21R                  
VIDALIA        FAIR      57  49  72 N6        30.19S                  
$$